PROPCUBE 3

Last updated on Thu Nov 21 2024 00:03:39 GMT+0000 (Coordinated Universal Time)

1 40973U 15058K 24325.20049242 .00007540 00000+0 62691-3 0 9993 2 40973 64.7699 238.0476 0183646 259.9854 98.0490 14.87146978 29204
UTC large
Height (km)
Speed (km/s)
/
Latitude / Longitude
Inclination (degrees)
Orbital Period (minutes)
Azimuth
Elevation
Range (km)
Doppler Factor

Next 0 passes for location: London (51.5072 / 0.1276)

Sorry there are no passes over London.